sat.trackr.live / text

‹ back to catalog

STARLINK-30860

NORAD 58234 · 2023-171E

PAYLOAD ACTIVE UNKNOWN

§ Identity

Operator
Country
US
Launch date
2023-11-08
Launch site
AFETR
Launch vehicle
Mass (kg)
RCS (m²)

Purposes: comms

External: N2YO · Heavens-Above · Gunter

§ Orbital elements

Epoch: 2026-05-25T05:16:21.100224Z

Period
94.27 min
Inclination
43.0007°
Eccentricity
0.0001090
Mean motion
15.27578297 rev/d
Perigee alt
482.3 km
Apogee alt
483.8 km
Semi-major
6,861.2 km
B*
-4.4246e-6
RAAN
212.6227°
Arg perigee
277.7184°
Mean anomaly
82.3544°
Rev number
14,144

§ Raw data

STARLINK-308601 58234U 23171E   26145.21968866 -.00000384  00000+0 -44246-5 0  99912 58234  43.0007 212.6227 0001090 277.7184  82.3544 15.27578297141449

JSON: /api/v1/satellites/58234 · /tle

For live sub-satellite position, see the globe view (requires WebGL).

§ Visibility from observer

Set your observer location to see the next 7 days of passes ≥ 10°. The values pass through the URL so the page stays shareable.

No JS? Fill the form by hand. The geolocation button needs JavaScript.